This is the latest recevied weather packets stored in our database for station/object OE5RBO. If no packets are shown the sender has not sent any weather packets the latest 10 day(s).
| Time | Temp. | Humidity | Pressure | Rain* | Wind** | Luminosity | Snow |
|---|---|---|---|---|---|---|---|
| 1787881157 | 19.44° C | 92% | 1012.4 hPa | 0 mm | - | - | - |
| 1787880557 | 19.44° C | 92% | 1012.5 hPa | 0 mm | - | - | - |
| 1787879957 | 19.44° C | 92% | 1012.5 hPa | 0 mm | - | - | - |
| 1787879356 | 19.44° C | 92% | 1012.6 hPa | 0 mm | - | - | - |
| 1787878756 | 19.44° C | 92% | 1012.4 hPa | 0 mm | - | - | - |
| 1787878156 | 20° C | 91% | 1012.5 hPa | 0 mm | - | - | - |
| 1787877555 | 20° C | 91% | 1012.4 hPa | 0 mm | - | - | - |
| 1787876955 | 20° C | 90% | 1012.6 hPa | 0 mm | - | - | - |
| 1787876354 | 20° C | 90% | 1012.5 hPa | 0 mm | - | - | - |
| 1787875754 | 20.56° C | 89% | 1012.7 hPa | 0 mm | - | - | - |
| 1787874553 | 20.56° C | 88% | 1012.7 hPa | 0 mm | - | - | - |
| 1787873953 | 20.56° C | 87% | 1012.8 hPa | 0 mm | - | - | - |
| 1787873353 | 21.11° C | 86% | 1012.8 hPa | 0 mm | - | - | - |
| 1787872752 | 21.11° C | 86% | 1012.8 hPa | 0 mm | - | - | - |
| 1787872152 | 21.11° C | 86% | 1013.1 hPa | 0 mm | - | - | - |
| 1787871551 | 21.11° C | 87% | 1013.3 hPa | 0 mm | - | - | - |
| 1787870351 | 21.11° C | 86% | 1013.5 hPa | 0 mm | - | - | - |
| 1787869750 | 21.11° C | 86% | 1013.7 hPa | 0 mm | - | - | - |
| 1787869150 | 21.67° C | 85% | 1013.7 hPa | 0 mm | - | - | - |
| 1787867349 | 22.22° C | 83% | 1013.8 hPa | 0 mm | - | - | - |
| 1787866148 | 22.78° C | 79% | 1013.8 hPa | 0 mm | - | - | - |
| 1787864947 | 23.89° C | 77% | 1013.9 hPa | 0 mm | - | - | - |
| 1787864347 | 23.89° C | 75% | 1013.9 hPa | 0 mm | - | - | - |
| 1787863747 | 23.89° C | 75% | 1013.9 hPa | 0 mm | - | - | - |
| 1787863146 | 23.89° C | 75% | 1014.2 hPa | 0 mm | - | - | - |
* Rain since midnight (hover to see other rain measurements)
** Current wind speed in m/s (hover to see current wind gust speed)